Wetterstats.de || Aktuelle Messwerte || Aktuelle Wetterkarten NEU! || Radar / Satellit NEU! || Wetterarchiv || Langzeitwerte NEU! || Klim. Kenntage || Met. Ereignisse || Agrarwerte || Echtzeitwerte

Monatsübersicht für Mai 2020 Diagramm
 
Wetter Information zur Wetteranzeige
Zeitraffer
Tageslänge (hh:mm)
Höchsttemperatur in °C
Uhrzeit
Tiefsttemperatur in °C
Uhrzeit
Luftfeuchte (max., in %)
Uhrzeit
Luftfeuchte (min., in %)
Uhrzeit
Luftdruck (max., in hPa)
Uhrzeit
Luftdruck (min., in hPa)
Uhrzeit
Luftdruck (Ø, in hPa)
Regenrate (max, mm/h)
Uhrzeit
Niederschlag in mm
Verdunstung in mm
Solar in W/m² (Ø)
Solar in W/m² (max.)
UV-Index (max.)
Sonnenscheindauer (hh:mm)
Windrichtung (Ø)
Windstärke (Ø in km/h)
Windstärke (Ø in bft)
Windböe (max., in km/h)
Uhrzeit
Windböe (max., in bft)
Uhrzeit
Taupunkt (max., in °C)
Uhrzeit
Taupunkt (min., in °C)
Uhrzeit
Windchill (min., in °C)
Uhrzeit
Gewitterindex (max.)
Uhrzeit
Waldbrandindex (max.)
Uhrzeit
Graslandfeuerindex (max.)
Uhrzeit
Staubsturm-Index (max.)
Uhrzeit
01
Zeitraffer
15:04
19.0
15:40 Uhr
10.0
06:45 Uhr

87
00:10 Uhr
42
16:55 Uhr
1001.5
00:05 Uhr

999.2
18:30 Uhr
1000.8
0,000
00:05 Uhr
0,000
2.946
284
918
13:35 Uhr
5.3
12:30 Uhr

04:30:00
3,9
1
30,6
10:40 Uhr

5
9.9
00:35 Uhr
5.2
20:10 Uhr
10.0
06:45 Uhr
2
00:05 Uhr

00:00 Uhr

00:00 Uhr

00:00 Uhr
02
Zeitraffer
15:07
16.8
13:30 Uhr
7.3
05:30 Uhr

93
20:50 Uhr
55
13:30 Uhr
1007.9
23:45 Uhr

1000.9
00:05 Uhr
1003.7
18,000
17:10 Uhr
3,300
2.159
236
927
11:35 Uhr
4.3
13:25 Uhr

02:40:00
2,8
1
30,6
14:00 Uhr

5
9.3
16:15 Uhr
5.1
05:30 Uhr
7.3
05:30 Uhr
0
00:05 Uhr

00:00 Uhr

00:00 Uhr

00:00 Uhr
03
Zeitraffer
15:11
16.1
16:30 Uhr
5.4
23:55 Uhr

93
00:05 Uhr
50
16:35 Uhr
1016.3
22:00 Uhr

1008.3
00:05 Uhr
1013.8
0,000
00:05 Uhr
0,000
2.057
244
890
14:40 Uhr
3.8
14:40 Uhr

03:55:00
3,2
1
24,1
09:20 Uhr

4
7.8
09:50 Uhr
3.9
23:55 Uhr
5.4
23:55 Uhr
0
00:05 Uhr

00:00 Uhr

00:00 Uhr

00:00 Uhr
04
Zeitraffer
15:14
16.6
12:00 Uhr
3.1
05:20 Uhr

94
06:35 Uhr
53
12:10 Uhr
1016.5
00:45 Uhr

1014.4
14:15 Uhr
1015.4
4,800
14:50 Uhr
2,600
1.473
177
811
11:55 Uhr
3.4
11:55 Uhr

01:30:00
1,0
0
19,3
11:45 Uhr

3
9.7
15:35 Uhr
1.9
05:20 Uhr
3.1
05:20 Uhr
0
00:05 Uhr

00:00 Uhr

00:00 Uhr

00:00 Uhr
05
Zeitraffer
15:17
11.8
14:25 Uhr
0.5
05:40 Uhr

95
06:50 Uhr
53
12:20 Uhr
1018.8
23:45 Uhr

1015.5
04:15 Uhr
1016.5
2,400
10:00 Uhr
1,400
2.057
261
949
13:25 Uhr
3.6
12:15 Uhr

04:25:00
3,0
1
32,2
12:40 Uhr

5
5.7
15:30 Uhr
-0.4
05:40 Uhr
0.5
05:40 Uhr
0
00:05 Uhr

00:00 Uhr

00:00 Uhr

00:00 Uhr
06
Zeitraffer
15:21
18.1
15:55 Uhr
2.1
01:20 Uhr

94
02:10 Uhr
32
16:00 Uhr
1020.5
12:00 Uhr

1018.3
19:15 Uhr
1019.3
2,400
14:25 Uhr
0,200
3.175
335
964
14:05 Uhr
4.2
13:10 Uhr

06:50:00
3,4
1
33,8
15:25 Uhr

5
7.3
10:00 Uhr
0.9
16:15 Uhr
2.1
01:20 Uhr
0
00:05 Uhr

00:00 Uhr

00:00 Uhr

00:00 Uhr
07
Zeitraffer
15:25
15.2
17:10 Uhr
3.5
03:15 Uhr

89
02:40 Uhr
54
17:15 Uhr
1021.7
13:00 Uhr

1019.3
00:05 Uhr
1020.3
0,000
00:05 Uhr
0,000
1.676
204
844
15:50 Uhr
2.7
15:55 Uhr

02:45:00
2,1
1
19,3
08:45 Uhr

3
7.1
17:05 Uhr
1.2
02:45 Uhr
3.5
03:15 Uhr
0
00:05 Uhr

00:00 Uhr

00:00 Uhr

00:00 Uhr
08
Zeitraffer
15:28
22.8
16:00 Uhr
3.4
05:40 Uhr

92
06:00 Uhr
25
17:10 Uhr
1019.4
00:05 Uhr

1014.5
18:15 Uhr
1016.7
0,000
00:05 Uhr
0,000
3.988
392
793
13:10 Uhr
4.3
13:10 Uhr

09:45:00
2,1
1
22,5
14:50 Uhr

4
8.9
09:45 Uhr
1.1
17:10 Uhr
3.4
05:40 Uhr
0
00:05 Uhr

00:00 Uhr

00:00 Uhr

00:00 Uhr
09
Zeitraffer
15:31
24.6
16:45 Uhr
4.0
05:25 Uhr

90
05:30 Uhr
33
11:05 Uhr
1016.1
00:05 Uhr

1010.6
23:45 Uhr
1013.9
0,000
00:05 Uhr
0,000
4.089
402
784
12:50 Uhr
4.3
12:50 Uhr

10:20:00
1,4
0
20,9
18:40 Uhr

4
8.9
16:45 Uhr
2.4
05:20 Uhr
4.0
05:25 Uhr
0
00:05 Uhr

00:00 Uhr

00:00 Uhr

00:00 Uhr
10
Zeitraffer
15:35
26.2
13:00 Uhr
7.1
04:35 Uhr

92
06:15 Uhr
38
13:00 Uhr
1010.7
00:05 Uhr

1001.0
19:15 Uhr
1005.3
2,400
22:05 Uhr
0,200
2.743
258
1000
12:55 Uhr
4.4
12:50 Uhr

04:25:00
1,2
0
17,7
09:55 Uhr

3
14.7
21:35 Uhr
5.1
04:35 Uhr
7.1
04:35 Uhr
8
21:25 Uhr

00:00 Uhr

00:00 Uhr

00:00 Uhr
11
Zeitraffer
15:38
15.4
00:05 Uhr
3.3
23:35 Uhr

94
03:20 Uhr
79
08:05 Uhr
1010.0
23:45 Uhr

1000.9
02:15 Uhr
1004.1
2,400
10:25 Uhr
8,400
0.330
35
118
11:25 Uhr
0.9
11:25 Uhr

00:05:00
3,8
1
29,0
15:55 Uhr

4
13.8
00:05 Uhr
2.3
22:55 Uhr
1.8
18:00 Uhr
7
00:05 Uhr

00:00 Uhr

00:00 Uhr

00:00 Uhr
12
Zeitraffer
15:42
12.1
14:20 Uhr
-1.2
05:35 Uhr

94
00:30 Uhr
43
12:45 Uhr
1015.1
09:45 Uhr

1010.0
00:05 Uhr
1013.8
2,400
08:20 Uhr
0,200
2.489
292
951
13:00 Uhr
4.8
13:00 Uhr

05:35:00
3,2
1
35,4
14:35 Uhr

5
3.2
09:15 Uhr
-2.0
05:05 Uhr
-1.2
05:35 Uhr
0
00:05 Uhr

00:00 Uhr

00:00 Uhr

00:00 Uhr
13
Zeitraffer
15:45
15.3
16:20 Uhr
1.7
04:20 Uhr

88
04:15 Uhr
41
16:20 Uhr
1013.3
00:05 Uhr

1009.6
20:15 Uhr
1011.5
0,000
00:05 Uhr
0,000
2.134
249
1074
13:10 Uhr
4.9
13:10 Uhr

03:25:00
1,1
0
22,5
11:30 Uhr

4
4.8
10:50 Uhr
-0.1
04:10 Uhr
1.7
04:20 Uhr
0
00:05 Uhr

00:00 Uhr

00:00 Uhr

00:00 Uhr
14
Zeitraffer
15:48
15.8
15:20 Uhr
2.8
05:20 Uhr

93
06:25 Uhr
41
17:20 Uhr
1018.0
23:00 Uhr

1010.4
01:00 Uhr
1014.7
0,000
00:05 Uhr
0,000
2.946
340
949
12:35 Uhr
4.4
12:55 Uhr

06:30:00
2,4
1
25,7
17:20 Uhr

4
6.7
09:45 Uhr
0.7
18:15 Uhr
2.8
05:20 Uhr
0
00:05 Uhr

00:00 Uhr

00:00 Uhr

00:00 Uhr
15
Zeitraffer
15:51
17.2
15:20 Uhr
-1.3
05:40 Uhr

92
04:10 Uhr
31
14:25 Uhr
1018.6
23:45 Uhr

1015.7
13:30 Uhr
1016.9
0,000
00:05 Uhr
0,000
3.785
405
848
13:10 Uhr
4.7
13:00 Uhr

09:10:00
2,6
1
27,4
17:05 Uhr

4
4.2
22:40 Uhr
-2.4
05:35 Uhr
-1.3
05:40 Uhr
0
00:05 Uhr

00:00 Uhr

00:00 Uhr

00:00 Uhr


 
Wetter Information zur Wetteranzeige
Zeitraffer
Tageslänge (hh:mm)
Höchsttemperatur in °C
Uhrzeit
Tiefsttemperatur in °C
Uhrzeit
Luftfeuchte (max., in %)
Uhrzeit
Luftfeuchte (min., in %)
Uhrzeit
Luftdruck (max., in hPa)
Uhrzeit
Luftdruck (min., in hPa)
Uhrzeit
Luftdruck (Ø, in hPa)
Regenrate (max, mm/h)
Uhrzeit
Niederschlag in mm
Verdunstung in mm
Solar in W/m² (Ø)
Solar in W/m² (max.)
UV-Index (max.)
Sonnenscheindauer (hh:mm)
Windrichtung (Ø)
Windstärke (Ø in km/h)
Windstärke (Ø in bft)
Windböe (max., in km/h)
Uhrzeit
Windböe (max., in bft)
Uhrzeit
Taupunkt (max., in °C)
Uhrzeit
Taupunkt (min., in °C)
Uhrzeit
Windchill (min., in °C)
Uhrzeit
Gewitterindex (max.)
Uhrzeit
Waldbrandindex (max.)
Uhrzeit
Graslandfeuerindex (max.)
Uhrzeit
Staubsturm-Index (max.)
Uhrzeit
16
Zeitraffer
15:54
16.8
16:35 Uhr
7.3
23:40 Uhr

75
04:10 Uhr
41
14:45 Uhr
1020.4
09:45 Uhr

1018.3
23:45 Uhr
1019.3
0,000
00:05 Uhr
0,000
2.998
275
1092
13:40 Uhr
5.2
12:30 Uhr

03:10:00
4,5
1
30,6
13:10 Uhr

5
5.0
10:20 Uhr
2.7
13:30 Uhr
7.3
23:40 Uhr
0
00:05 Uhr

00:00 Uhr

00:00 Uhr

00:00 Uhr
17
Zeitraffer
15:57
19.3
15:35 Uhr
6.6
02:30 Uhr

91
07:15 Uhr
36
16:10 Uhr
1020.3
13:15 Uhr

1017.2
02:15 Uhr
1019.0
2,400
06:15 Uhr
0,200
3.734
383
981
13:05 Uhr
4.7
13:00 Uhr

08:05:00
3,4
1
29,0
12:45 Uhr

4
8.2
08:10 Uhr
3.1
00:35 Uhr
6.6
02:30 Uhr
0
00:05 Uhr

00:00 Uhr

00:00 Uhr

00:00 Uhr
18
Zeitraffer
16:00
22.3
16:25 Uhr
7.8
05:20 Uhr

78
06:00 Uhr
40
16:20 Uhr
1020.9
09:45 Uhr

1017.6
19:15 Uhr
1019.2
0,000
00:05 Uhr
0,000
3.429
301
906
11:05 Uhr
4.4
12:00 Uhr

05:50:00
3,3
1
27,4
11:55 Uhr

4
9.7
20:55 Uhr
3.6
00:30 Uhr
7.8
05:20 Uhr
2
21:40 Uhr

00:00 Uhr

00:00 Uhr

00:00 Uhr
19
Zeitraffer
16:03
20.3
16:40 Uhr
8.6
03:30 Uhr

92
03:40 Uhr
54
16:40 Uhr
1019.7
23:00 Uhr

1017.3
04:30 Uhr
1017.9
0,000
00:05 Uhr
0,000
2.083
193
791
15:15 Uhr
4.8
14:55 Uhr

01:50:00
2,7
1
25,7
12:40 Uhr

4
11.9
12:20 Uhr
6.7
03:30 Uhr
8.6
03:30 Uhr
3
12:20 Uhr

00:00 Uhr

00:00 Uhr

00:00 Uhr
20
Zeitraffer
16:06
20.9
14:30 Uhr
7.7
23:55 Uhr

96
02:00 Uhr
39
14:00 Uhr
1022.1
23:45 Uhr

1019.4
03:15 Uhr
1020.3
0,000
00:05 Uhr
0,000
4.343
428
899
14:20 Uhr
4.9
12:45 Uhr

10:15:00
2,4
1
22,5
14:25 Uhr

4
8.6
07:30 Uhr
4.2
23:50 Uhr
7.7
23:55 Uhr
0
00:05 Uhr

00:00 Uhr

00:00 Uhr

00:00 Uhr
21
Zeitraffer
16:09
21.6
16:15 Uhr
3.4
05:10 Uhr

91
04:50 Uhr
30
15:50 Uhr
1024.0
09:45 Uhr

1021.9
18:15 Uhr
1022.8
0,000
00:05 Uhr
0,000
4.089
404
865
12:35 Uhr
4.9
13:05 Uhr

10:40:00
1,9
0
22,5
09:10 Uhr

4
7.0
08:15 Uhr
2.0
04:40 Uhr
3.4
05:10 Uhr
0
00:05 Uhr

00:00 Uhr

00:00 Uhr

00:00 Uhr
22
Zeitraffer
16:11
24.1
15:40 Uhr
4.9
05:15 Uhr

83
03:50 Uhr
31
12:20 Uhr
1023.2
01:45 Uhr

1018.7
18:30 Uhr
1021.0
0,000
00:05 Uhr
0,000
3.555
343
902
13:00 Uhr
5.2
13:00 Uhr

07:00:00
3,1
1
24,1
20:05 Uhr

4
7.0
08:20 Uhr
2.2
05:20 Uhr
4.9
05:15 Uhr
0
00:05 Uhr

00:00 Uhr

00:00 Uhr

00:00 Uhr
23
Zeitraffer
16:14
20.3
12:25 Uhr
9.6
04:25 Uhr

94
07:20 Uhr
53
16:30 Uhr
1021.6
23:30 Uhr

1016.9
15:45 Uhr
1018.2
4,800
03:20 Uhr
3,800
1.676
166
649
12:20 Uhr
4.3
12:10 Uhr

01:45:00
2,6
1
27,4
16:10 Uhr

4
15.4
11:20 Uhr
6.0
00:35 Uhr
9.6
04:25 Uhr
6
10:20 Uhr

00:00 Uhr

00:00 Uhr

00:00 Uhr
24
Zeitraffer
16:17
18.1
12:20 Uhr
8.3
03:55 Uhr

93
21:25 Uhr
47
12:20 Uhr
1023.5
19:45 Uhr

1021.4
11:45 Uhr
1022.4
36,000
14:25 Uhr
10,200
2.235
249
1006
12:15 Uhr
4.9
12:15 Uhr

04:00:00
3,4
1
43,5
12:30 Uhr

6
11.3
13:40 Uhr
6.2
12:10 Uhr
7.3
12:40 Uhr
2
13:25 Uhr

00:00 Uhr

00:00 Uhr

00:00 Uhr
25
Zeitraffer
16:20
14.9
14:50 Uhr
8.7
23:55 Uhr

94
03:05 Uhr
76
15:15 Uhr
1030.3
23:30 Uhr

1022.5
02:15 Uhr
1025.5
7,200
16:35 Uhr
4,000
1.524
178
960
11:25 Uhr
4.5
14:30 Uhr

01:40:00
2,8
1
24,1
10:45 Uhr

4
11.8
13:25 Uhr
7.8
23:55 Uhr
8.7
23:55 Uhr
2
10:10 Uhr

00:00 Uhr

00:00 Uhr

00:00 Uhr
26
Zeitraffer
16:22
19.8
15:10 Uhr
5.3
04:40 Uhr

95
04:00 Uhr
48
18:30 Uhr
1033.5
09:30 Uhr

1030.4
00:05 Uhr
1032.0
0,000
00:05 Uhr
0,000
0.888
211
928
14:30 Uhr
4.8
14:05 Uhr

02:15:00
0,8
0
17,7
15:10 Uhr

3
10.8
14:20 Uhr
4.4
04:40 Uhr
5.3
04:40 Uhr
2
14:20 Uhr

00:00 Uhr

00:00 Uhr

00:00 Uhr
27
Zeitraffer
16:24
23.0
17:00 Uhr
4.3
05:15 Uhr

94
04:15 Uhr
34
14:55 Uhr
1033.1
01:15 Uhr

1027.0
21:00 Uhr
1030.5
0,000
00:05 Uhr
0,000
4.089
408
802
12:40 Uhr
5.1
12:40 Uhr

09:30:00
1,5
0
20,9
15:00 Uhr

4
10.8
20:45 Uhr
3.4
04:45 Uhr
4.3
05:15 Uhr
3
22:05 Uhr

00:00 Uhr

00:00 Uhr

00:00 Uhr
28
Zeitraffer
16:27
20.8
17:15 Uhr
9.4
06:05 Uhr

93
05:05 Uhr
44
17:20 Uhr
1028.6
02:30 Uhr

1026.1
17:00 Uhr
1027.4
4,800
02:25 Uhr
1,400
2.261
204
900
13:00 Uhr
5.1
13:00 Uhr

01:50:00
3,1
1
25,7
17:50 Uhr

4
11.2
02:05 Uhr
6.7
23:00 Uhr
9.4
06:05 Uhr
3
01:10 Uhr

00:00 Uhr

00:00 Uhr

00:00 Uhr
29
Zeitraffer
16:29
20.8
15:50 Uhr
4.5
05:30 Uhr

93
06:05 Uhr
37
13:00 Uhr
1029.0
06:15 Uhr

1024.0
23:00 Uhr
1027.0
0,000
00:05 Uhr
0,000
3.531
323
1074
13:10 Uhr
6.0
13:10 Uhr

06:25:00
3,2
1
25,7
13:35 Uhr

4
8.0
18:15 Uhr
3.3
05:30 Uhr
4.5
05:30 Uhr
0
00:05 Uhr

00:00 Uhr

00:00 Uhr

00:00 Uhr
30
Zeitraffer
16:31
19.5
14:35 Uhr
5.3
05:10 Uhr

86
05:15 Uhr
40
16:30 Uhr
1024.5
03:45 Uhr

1020.1
18:15 Uhr
1022.4
0,000
00:05 Uhr
0,000
4.039
372
1008
14:35 Uhr
5.5
12:50 Uhr

08:40:00
4,4
1
30,6
10:25 Uhr

5
7.6
21:25 Uhr
3.0
05:05 Uhr
5.3
05:10 Uhr
0
00:05 Uhr

00:00 Uhr

00:00 Uhr

00:00 Uhr
31
Zeitraffer
16:33
24.1
15:20 Uhr
8.8
03:10 Uhr

85
03:15 Uhr
40
15:55 Uhr
1021.0
23:45 Uhr

1017.7
15:00 Uhr
1019.1
0,000
00:05 Uhr
0,000
3.988
359
995
11:30 Uhr
5.5
12:50 Uhr

08:00:00
4,2
1
29,0
13:05 Uhr

4
11.8
12:30 Uhr
6.3
00:25 Uhr
8.8
03:10 Uhr
3
12:05 Uhr

00:00 Uhr

00:00 Uhr

00:00 Uhr
Stationsstandorte || Wetterblog || Wissenswertes || Downloads || Seitenhistorie || Partner || Impressum / Datenschutz